When you browse on this site, cookies collect data to enhance your experience and personalize the content and advertising you see.
Visit our Privacy Policy to learn more. By continuing to use the site, you agree to this use of cookies and data.
  • în România
  • Lista ţărilor
  • Pe 7 zile
  • Temperatura apei
  • Hartă satelitară
  • Meteo pe hartă
  • Widget-uri
  • user-avatar
    Intrare

    Meteo pe oră la Northallerton

    Astăzi, 17 Ianuarie, Joi

    Timp Temperatura Precipitaţii Vânt Presiune Umiditate
    00:00 0°C° 0 mm 4 m/s 746 mmHg 83%
    01:00 +1°C° 0.3 mm 5 m/s 746 mmHg 82%
    02:00 +1°C° 0.3 mm 6 m/s 747 mmHg 81%
    03:00 0°C° 0.3 mm 7 m/s 748 mmHg 80%
    04:00 -1°C° 0 mm 7 m/s 749 mmHg 76%
    05:00 -2°C° 0 mm 7 m/s 749 mmHg 71%
    06:00 -3°C° 0 mm 6 m/s 750 mmHg 68%
    07:00 -3°C° 0 mm 7 m/s 751 mmHg 66%
    08:00 -2°C° 0 mm 7 m/s 751 mmHg 65%
    09:00 -2°C° 0 mm 8 m/s 752 mmHg 63%
    10:00 -1°C° 0 mm 8 m/s 752 mmHg 62%
    11:00 0°C° 0 mm 8 m/s 753 mmHg 61%
    12:00 +1°C° 0 mm 8 m/s 754 mmHg 60%
    13:00 +2°C° 0 mm 7 m/s 755 mmHg 62%
    14:00 +2°C° 0 mm 6 m/s 755 mmHg 64%
    15:00 +2°C° 0 mm 5 m/s 756 mmHg 66%
    16:00 +1°C° 0 mm 5 m/s 756 mmHg 69%
    17:00 0°C° 0 mm 4 m/s 757 mmHg 72%
    18:00 -1°C° 0 mm 4 m/s 757 mmHg 75%
    19:00 0°C° 0 mm 3 m/s 758 mmHg 75%
    20:00 0°C° 0 mm 3 m/s 758 mmHg 76%
    21:00 -1°C° 0 mm 2 m/s 758 mmHg 77%
    22:00 -1°C° 0 mm 2 m/s 758 mmHg 77%
    23:00 -1°C° 0 mm 2 m/s 758 mmHg 76%

    Mâine, 18 Ianuarie, Vineri

    Timp Temperatura Precipitaţii Vânt Presiune Umiditate
    00:00 +2°C° 0 mm 1 m/s 759 mmHg 76%
    01:00 +1°C° 0 mm 1 m/s 758 mmHg 76%
    02:00 +1°C° 0 mm 1 m/s 758 mmHg 76%
    03:00 +1°C° 0 mm 1 m/s 758 mmHg 75%
    04:00 +1°C° 0 mm 1 m/s 758 mmHg 75%
    05:00 -1°C° 0 mm 2 m/s 758 mmHg 75%
    06:00 -1°C° 0 mm 2 m/s 757 mmHg 75%
    07:00 -1°C° 0 mm 2 m/s 757 mmHg 76%
    08:00 -1°C° 0 mm 3 m/s 757 mmHg 76%
    09:00 -1°C° 0 mm 3 m/s 757 mmHg 76%
    10:00 -1°C° 0 mm 4 m/s 757 mmHg 71%
    11:00 0°C° 0 mm 5 m/s 757 mmHg 66%
    12:00 +1°C° 0 mm 5 m/s 756 mmHg 61%
    13:00 +1°C° 0 mm 5 m/s 756 mmHg 61%
    14:00 +1°C° 0 mm 5 m/s 755 mmHg 62%
    15:00 +1°C° 0 mm 5 m/s 755 mmHg 63%
    16:00 +1°C° 0.2 mm 5 m/s 755 mmHg 67%
    17:00 +1°C° 0.2 mm 5 m/s 754 mmHg 71%
    18:00 -1°C° 0.2 mm 6 m/s 754 mmHg 75%
    19:00 -1°C° 0.2 mm 6 m/s 754 mmHg 77%
    20:00 -1°C° 0.2 mm 6 m/s 754 mmHg 79%
    21:00 -1°C° 0.2 mm 6 m/s 753 mmHg 82%
    22:00 -1°C° 0.3 mm 6 m/s 753 mmHg 83%
    23:00 -1°C° 0.3 mm 6 m/s 753 mmHg 85%

    Poimâine, 19 Ianuarie, Sâmbătă

    Timp Temperatura Precipitaţii Vânt Presiune Umiditate
    00:00 -1°C° 0.3 mm 6 m/s 752 mmHg 87%
    01:00 -1°C° 0.1 mm 6 m/s 752 mmHg 88%
    02:00 -1°C° 0.1 mm 6 m/s 752 mmHg 88%
    03:00 0°C° 0.1 mm 5 m/s 752 mmHg 89%
    04:00 0°C° 0 mm 5 m/s 751 mmHg 91%
    05:00 0°C° 0 mm 5 m/s 751 mmHg 92%
    06:00 0°C° 0 mm 4 m/s 751 mmHg 94%
    07:00 0°C° 0 mm 4 m/s 751 mmHg 94%
    08:00 0°C° 0 mm 4 m/s 751 mmHg 94%
    09:00 0°C° 0 mm 4 m/s 751 mmHg 94%
    10:00 0°C° 0 mm 4 m/s 751 mmHg 94%
    11:00 +2°C° 0 mm 3 m/s 751 mmHg 93%
    12:00 +2°C° 0 mm 3 m/s 751 mmHg 92%
    13:00 +3°C° 0 mm 2 m/s 751 mmHg 93%
    14:00 +3°C° 0 mm 2 m/s 751 mmHg 94%
    15:00 +4°C° 0 mm 1 m/s 751 mmHg 95%
    16:00 +4°C° 0.1 mm 1 m/s 751 mmHg 96%
    17:00 +4°C° 0.1 mm 1 m/s 751 mmHg 97%
    18:00 +4°C° 0.1 mm 1 m/s 752 mmHg 97%
    19:00 +4°C° 0 mm 1 m/s 752 mmHg 97%
    20:00 +4°C° 0 mm 1 m/s 753 mmHg 97%
    21:00 +3°C° 0 mm 0 m/s 753 mmHg 97%
    22:00 +3°C° 0 mm 0 m/s 753 mmHg 97%
    23:00 +4°C° 0 mm 1 m/s 754 mmHg 96%

    20 Ianuarie, Duminică

    Timp Temperatura Precipitaţii Vânt Presiune Umiditate
    00:00 +3°C° 0 mm 1 m/s 754 mmHg 96%
    01:00 +3°C° 0 mm 1 m/s 754 mmHg 95%
    02:00 +3°C° 0 mm 1 m/s 754 mmHg 95%
    03:00 +3°C° 0 mm 1 m/s 755 mmHg 94%
    04:00 +3°C° 0 mm 1 m/s 755 mmHg 94%
    05:00 +3°C° 0 mm 1 m/s 755 mmHg 93%
    06:00 +2°C° 0 mm 1 m/s 756 mmHg 92%
    07:00 +2°C° 0 mm 1 m/s 756 mmHg 91%
    08:00 +2°C° 0 mm 1 m/s 757 mmHg 90%
    09:00 +2°C° 0 mm 1 m/s 757 mmHg 90%
    10:00 +4°C° 0 mm 1 m/s 758 mmHg 87%
    11:00 +5°C° 0 mm 1 m/s 758 mmHg 85%
    12:00 +5°C° 0 mm 2 m/s 759 mmHg 83%
    13:00 +4°C° 0.1 mm 3 m/s 759 mmHg 84%
    14:00 +4°C° 0.1 mm 4 m/s 760 mmHg 85%
    15:00 +2°C° 0.1 mm 5 m/s 760 mmHg 86%
    16:00 +2°C° 0 mm 5 m/s 761 mmHg 84%
    17:00 +1°C° 0 mm 5 m/s 761 mmHg 81%
    18:00 0°C° 0 mm 5 m/s 762 mmHg 78%
    19:00 0°C° 0 mm 5 m/s 763 mmHg 79%
    20:00 -1°C° 0 mm 5 m/s 763 mmHg 79%
    21:00 -1°C° 0 mm 4 m/s 764 mmHg 80%
    22:00 -2°C° 0 mm 4 m/s 764 mmHg 80%
    23:00 -2°C° 0 mm 4 m/s 765 mmHg 80%

    21 Ianuarie, Luni

    Timp Temperatura Precipitaţii Vânt Presiune Umiditate
    00:00 -2°C° 0 mm 4 m/s 765 mmHg 80%
    01:00 -2°C° 0 mm 4 m/s 765 mmHg 79%
    02:00 -1°C° 0 mm 3 m/s 765 mmHg 79%
    03:00 -2°C° 0 mm 3 m/s 765 mmHg 78%
    04:00 -2°C° 0 mm 3 m/s 765 mmHg 78%
    05:00 -2°C° 0 mm 3 m/s 765 mmHg 78%
    06:00 -2°C° 0 mm 3 m/s 765 mmHg 78%
    07:00 -1°C° 0 mm 2 m/s 765 mmHg 79%
    08:00 -1°C° 0 mm 2 m/s 764 mmHg 79%
    09:00 -1°C° 0 mm 2 m/s 764 mmHg 79%
    10:00 +1°C° 0 mm 2 m/s 764 mmHg 77%
    11:00 +2°C° 0 mm 3 m/s 763 mmHg 75%
    12:00 +3°C° 0 mm 3 m/s 762 mmHg 73%
    13:00 +3°C° 0 mm 3 m/s 761 mmHg 75%
    14:00 +3°C° 0 mm 4 m/s 761 mmHg 77%
    15:00 +1°C° 0 mm 4 m/s 760 mmHg 79%
    16:00 +1°C° 0.1 mm 4 m/s 758 mmHg 80%
    17:00 +1°C° 0.1 mm 5 m/s 757 mmHg 81%
    18:00 0°C° 0.1 mm 5 m/s 756 mmHg 82%
    19:00 0°C° 0.3 mm 5 m/s 755 mmHg 83%
    20:00 -1°C° 0.3 mm 6 m/s 753 mmHg 83%
    21:00 -1°C° 0.3 mm 7 m/s 752 mmHg 84%
    22:00 -1°C° 0.4 mm 7 m/s 751 mmHg 86%
    23:00 -1°C° 0.4 mm 8 m/s 749 mmHg 87%

    22 Ianuarie, Marţi

    Timp Temperatura Precipitaţii Vânt Presiune Umiditate
    00:00 -1°C° 0.4 mm 8 m/s 748 mmHg 89%
    01:00 -1°C° 0.6 mm 8 m/s 747 mmHg 90%
    02:00 -1°C° 0.6 mm 7 m/s 746 mmHg 91%
    03:00 -1°C° 0.6 mm 7 m/s 745 mmHg 93%
    04:00 -1°C° 0.3 mm 6 m/s 744 mmHg 94%
    05:00 0°C° 0.3 mm 5 m/s 744 mmHg 95%
    06:00 +1°C° 0.3 mm 3 m/s 744 mmHg 97%
    07:00 0°C° 0.6 mm 4 m/s 744 mmHg 96%
    08:00 0°C° 0.6 mm 4 m/s 744 mmHg 95%
    09:00 0°C° 0.6 mm 4 m/s 744 mmHg 95%
    10:00 0°C° 0.8 mm 4 m/s 744 mmHg 95%
    11:00 0°C° 0.8 mm 5 m/s 744 mmHg 95%
    12:00 0°C° 0.8 mm 5 m/s 744 mmHg 95%
    13:00 0°C° 0.7 mm 5 m/s 744 mmHg 95%
    14:00 0°C° 0.7 mm 5 m/s 745 mmHg 95%
    15:00 0°C° 0.7 mm 5 m/s 745 mmHg 95%
    16:00 0°C° 0.6 mm 5 m/s 745 mmHg 96%
    17:00 0°C° 0.6 mm 5 m/s 746 mmHg 96%
    18:00 0°C° 0.6 mm 4 m/s 746 mmHg 96%
    19:00 0°C° 0.4 mm 4 m/s 747 mmHg 97%
    20:00 0°C° 0.4 mm 4 m/s 747 mmHg 97%
    21:00 +1°C° 0.4 mm 3 m/s 748 mmHg 97%
    22:00 +1°C° 0.1 mm 3 m/s 748 mmHg 97%
    23:00 +1°C° 0.1 mm 3 m/s 748 mmHg 97%
    Arată mai mult